Portada
METAR-TAF:

METAR-TAF

Aeropuertos :

Aeropuerto Internacional Arturo Michelena

Valencia, Venezuela

latitud: 10-10N, longitud: 067-56W, altitud: 430 m

Observación

El informe se hizo hace 1 hora y 30 minutos, a las 02:00 UTC
Viento 2 kt del noroeste
Temperatura 26°C
Humedad 79%
Presión 1015 hPa
Visibilidad 10 km o más
Escasas nubes a una altura de 1600 ft

METAR: SVVA 250200Z 31002KT 9999 FEW016 26/22 Q1015

Hora: 23:30 (03:30 UTC)


TAF: falta

Observaciones y pronósticos meteorológicos de más de 4000 aeropuertos (mensajes METAR y TAF).

Los puntos amarillos y rojos representan las estaciones disponibles.

Ponga el ratón en el punto deseado para ver el nombre de la estación.

Haga clic para ver las observaciones y los pronósticos meteorológicos.

Para cambiar el mapa : haga clic en los botones verdes con una cruz de color negro para hacer un zoom, en el botón verde con un guión para alejar o en las flechas verdes para mapas adyacentes.


METAR-TAF: